{"data":{"norad_id":57786,"intl_designator":"2023-134R","name":"STARLINK-30382","alt_names":[],"object_type":"PAYLOAD","status":"ACTIVE","operator":null,"country":"US","launch_date":"2023-09-04","launch_site_code":"AFETR","launch_vehicle":null,"mission":null,"orbit_class":"UNKNOWN","rcs_meters":null,"size_class":null,"mass_kg":null,"dimensions":null,"purposes":["comms"],"wikipedia_slug":null,"has_3d_model":false,"image_url":null,"decayed_at":null,"tle_current":{"epoch":"2026-09-20T00:56:51.491040Z","epoch_age_seconds":171079,"freshness":"FRESH","line1":"1 57786U 23134R   26263.03948485  .00000676  00000+0  34071-4 0  9993","line2":"2 57786  43.0011 176.5976 0001240 264.6232  95.4478 15.27581096169239","mean_motion":15.27581096,"eccentricity":0.000124,"inclination_deg":43.0011,"raan_deg":176.5976,"arg_perigee_deg":264.6232,"mean_anomaly_deg":95.4478,"bstar":3.4071e-5,"rev_number":16923,"period_min":94.266681079693,"perigee_km":482.19502755437,"apogee_km":483.89660089229,"semimajor_km":6861.1828142233,"source":"CELESTRAK","updated_at":"2026-09-21T09:00:33.705238Z"}}}